Погода в Серебрянке

Россия / Пермский край     60°29′29″N   53°24′56″E
темп.,
°C
ветер,
м/с
пор.,
м/с
влажн.,
%
обл.,
%
осадки,
мм/ч
давл.,
гПа
погр.,
м
7 марта, вс
вс723:00−19зсз229892 0.1 100921
02:00−22з1110083 0.0 100920
05:00−22юз129983 0.0 100920
08:00−23юз129994 0.0 100820
11:00−18ююз139192 0.1 1008243
14:00−14ююз238399 0.0 1007590
17:00−13ю2384100 0.1 1006704
20:00−17юв229597 0.0 100620
8 марта, пн
пн823:00−19юв229987 0.1 100520
02:00−19вюв229995 0.0 100436
05:00−20в379994 0.1 1003145
08:00−19в3797100 0.0 1001255
11:00−16в4794100 0.1 1000323
14:00−13в4792100 0.4 998515
17:00−11в4792100 0.8 998706
20:00−13всв3795100 0.4 999389
9 марта, вт
вт923:00−13св3895100 0.8 999378
02:00−15ссв3796100 0.3 999292
05:00−16ссв3895100 0.6 1000339
08:00−18ссв3896100 0.3 1002367
11:00−18с3792100 0.4 1004410
14:00−16с3690100 0.1 1006486
17:00−17с3688100 0.1 1008536
20:00−20с3794100 0.0 1010399
10 марта, ср
ср1023:00−25с279695 0.0 1013253
02:00−30с239730 0.0 101459
05:00−32ссз229715 0.0 101537
08:00−33сз22970 0.0 101529
11:00−25сз24900 0.0 1015260
14:00−19з248317 0.0 1013509
17:00−17з478852 0.0 1012737
20:00−20з3996100 0.1 1011399
11 марта, чт
чт1123:00−18з41194100 0.1 1009524
02:00−17з41095100 0.3 1007556
05:00−15зсз41291100 0.4 1006562
08:00−13зсз3895100 0.2 1007419
11:00−11зсз3692100 0.5 1008669
14:00−9зсз5888100 0.4 1008950
17:00−10зсз51086100 0.5 1009751
20:00−12з41191100 0.0 1010603